sat.trackr.live / text

‹ back to catalog

BEIDOU-2 G3

NORAD 36590 · 2010-024A

PAYLOAD ACTIVE UNKNOWN

§ Identity

Operator
Country
PRC
Launch date
2010-06-02
Launch site
XICLF
Launch vehicle
Mass (kg)
RCS (m²)
52.40

Purposes: comms

External: N2YO · Heavens-Above · Gunter

§ Orbital elements

Epoch: 2026-09-15T22:41:01.374720Z

Period
1,436.07 min
Inclination
4.7270°
Eccentricity
0.0005073
Mean motion
1.00273499 rev/d
Perigee alt
35,764.7 km
Apogee alt
35,807.5 km
Semi-major
42,164.3 km
B*
0.0000e+0
RAAN
61.0330°
Arg perigee
0.6180°
Mean anomaly
353.1253°
Rev number
5,967

§ Raw data

BEIDOU-2 G31 36590U 10024A   26258.94515480 -.00000140  00000+0  00000+0 0  99932 36590   4.7270  61.0330 0005073   0.6180 353.1253  1.00273499 59672

JSON: /api/v1/satellites/36590 · /tle

For live sub-satellite position, see the globe view (requires WebGL).

§ Visibility from observer

Set your observer location to see the next 7 days of passes ≥ 10°. The values pass through the URL so the page stays shareable.

No JS? Fill the form by hand. The geolocation button needs JavaScript.